RYR9ZE LGSA-EPKK

Flight info

Callsign RYR9ZE
Flight time 2h 18m
Altitude 38000
Route SOKRI UY151 VELOP DCT ATV UM749 SKP UL617 BAMOS/N0442F370 DCT PEREN/N0445F380 DCT ATFIR N133 USALI DCT ERDOM DCT NARKA DCT KSC DCT KOJOT DCT RAZEC/N0366F240 N133 LENOV
Aircraft B38M/M-SADE3FGILRWY/SB1

Departure

Time 2026-05-07 12:43
Airport Chania International Airport (LGSA)

Arrival

Time 2026-05-07 15:02
Airport Kraków John Paul II International Airport (EPKK)
Time Latitude Longitude Altitude Speed Heading
2026-05-07 12:20 35.53915 24.13866 439 ft 0 kts 26°
2026-05-07 12:36 35.53913 24.13865 439 ft 2 kts 26°
2026-05-07 12:36 35.53898 24.13858 428 ft 2 kts 12°
2026-05-07 12:36 35.53881 24.13856 434 ft 2 kts 354°
2026-05-07 12:36 35.53866 24.13861 425 ft 2 kts 335°
2026-05-07 12:37 35.53852 24.13871 433 ft 2 kts 319°
2026-05-07 12:37 35.53840 24.13886 424 ft 2 kts 306°
2026-05-07 12:37 35.53832 24.13902 427 ft 2 kts 297°
2026-05-07 12:37 35.53829 24.13909 428 ft 0 kts 293°
2026-05-07 12:40 35.53832 24.13901 429 ft 3 kts 293°
2026-05-07 12:40 35.53840 24.13864 430 ft 6 kts 274°
2026-05-07 12:41 35.53815 24.13822 437 ft 7 kts 205°
2026-05-07 12:41 35.53762 24.13792 425 ft 9 kts 215°
2026-05-07 12:41 35.53764 24.13719 435 ft 10 kts 292°
2026-05-07 12:41 35.53795 24.13623 426 ft 14 kts 291°
2026-05-07 12:42 35.53798 24.13506 432 ft 14 kts 227°
2026-05-07 12:42 35.53709 24.13452 431 ft 16 kts 202°
2026-05-07 12:42 35.53666 24.13461 430 ft 6 kts 118°
2026-05-07 12:42 35.53563 24.13780 429 ft 77 kts 111°
2026-05-07 12:43 35.53277 24.14654 457 ft 141 kts 112°
2026-05-07 12:43 35.52870 24.15898 807 ft 163 kts 111°
2026-05-07 12:43 35.52462 24.17214 1524 ft 168 kts 111°
2026-05-07 12:43 35.52020 24.18585 2201 ft 178 kts 113°
2026-05-07 12:44 35.51556 24.20098 2702 ft 205 kts 112°
2026-05-07 12:44 35.51037 24.21847 3156 ft 230 kts 111°
2026-05-07 12:44 35.50472 24.23694 4089 ft 229 kts 112°
2026-05-07 12:44 35.49907 24.25510 5098 ft 228 kts 112°
2026-05-07 12:45 35.49329 24.27316 5888 ft 235 kts 113°
2026-05-07 12:45 35.48709 24.29202 6701 ft 240 kts 113°
2026-05-07 12:45 35.48075 24.31092 7538 ft 240 kts 113°
2026-05-07 12:45 35.47432 24.32999 8268 ft 245 kts 112°
2026-05-07 12:46 35.46818 24.34956 9055 ft 246 kts 106°
2026-05-07 12:46 35.46676 24.37036 9745 ft 248 kts 75°
2026-05-07 12:46 35.47443 24.38889 10476 ft 246 kts 44°
2026-05-07 12:46 35.48849 24.40051 11113 ft 245 kts 15°
2026-05-07 12:47 35.50514 24.40232 11806 ft 243 kts 347°
2026-05-07 12:47 35.52031 24.39430 12489 ft 242 kts 320°
2026-05-07 12:47 35.53066 24.37817 13187 ft 244 kts 292°
2026-05-07 12:47 35.53348 24.35773 13895 ft 247 kts 266°
2026-05-07 12:48 35.53144 24.33662 14530 ft 251 kts 268°
2026-05-07 12:48 35.53024 24.31520 15200 ft 252 kts 268°
2026-05-07 12:48 35.52910 24.29362 15865 ft 254 kts 268°
2026-05-07 12:48 35.52797 24.27187 16522 ft 256 kts 267°
2026-05-07 12:49 35.52685 24.24994 17181 ft 258 kts 267°
2026-05-07 12:49 35.52669 24.22770 17653 ft 268 kts 281°
2026-05-07 12:49 35.53440 24.20679 17883 ft 285 kts 309°
2026-05-07 12:49 35.55012 24.19081 18110 ft 306 kts 328°
2026-05-07 12:50 35.57068 24.18129 18276 ft 329 kts 348°
2026-05-07 12:50 35.59429 24.18017 18430 ft 349 kts 355°
2026-05-07 12:50 35.61891 24.17787 18648 ft 362 kts 353°
2026-05-07 12:50 35.64425 24.17563 19148 ft 365 kts 353°
2026-05-07 12:51 35.66966 24.17369 19763 ft 366 kts 353°
2026-05-07 12:51 35.69519 24.17186 20313 ft 369 kts 353°
2026-05-07 12:51 35.72084 24.17010 20881 ft 370 kts 353°
2026-05-07 12:51 35.74663 24.16839 21456 ft 372 kts 353°
2026-05-07 12:52 35.77251 24.16667 22029 ft 373 kts 353°
2026-05-07 12:52 35.79814 24.16498 22587 ft 375 kts 353°
2026-05-07 12:52 35.82422 24.16327 23154 ft 377 kts 352°
2026-05-07 12:52 35.85045 24.16155 23711 ft 378 kts 352°
2026-05-07 12:53 35.87680 24.15981 24179 ft 380 kts 352°
2026-05-07 12:53 35.90328 24.15807 24639 ft 382 kts 352°
2026-05-07 12:53 35.92986 24.15634 25086 ft 384 kts 352°
2026-05-07 12:53 35.95661 24.15458 25536 ft 386 kts 352°
2026-05-07 12:54 35.98346 24.15283 25972 ft 387 kts 352°
2026-05-07 12:54 36.01044 24.15105 26394 ft 390 kts 352°
2026-05-07 12:54 36.03723 24.14930 26809 ft 392 kts 352°
2026-05-07 12:54 36.06445 24.14752 27224 ft 393 kts 351°
2026-05-07 12:55 36.09188 24.14572 27637 ft 395 kts 351°
2026-05-07 12:55 36.11942 24.14390 28046 ft 397 kts 351°
2026-05-07 12:55 36.14709 24.14211 28427 ft 400 kts 351°
2026-05-07 12:55 36.17499 24.14026 28771 ft 403 kts 351°
2026-05-07 12:56 36.20305 24.13842 29172 ft 405 kts 351°
2026-05-07 12:56 36.23122 24.13657 29535 ft 406 kts 351°
2026-05-07 12:56 36.25955 24.13470 29910 ft 408 kts 351°
2026-05-07 12:56 36.28798 24.13282 30266 ft 410 kts 351°
2026-05-07 12:57 36.31657 24.13092 30577 ft 412 kts 351°
2026-05-07 12:57 36.34520 24.12902 30927 ft 412 kts 350°
2026-05-07 12:57 36.37350 24.12717 31292 ft 413 kts 350°
2026-05-07 12:57 36.40225 24.12528 31584 ft 415 kts 350°
2026-05-07 12:58 36.43113 24.12336 31904 ft 416 kts 350°
2026-05-07 12:58 36.46005 24.12145 32226 ft 417 kts 350°
2026-05-07 12:58 36.48906 24.11953 32573 ft 417 kts 349°
2026-05-07 12:58 36.51795 24.11769 33012 ft 415 kts 349°
2026-05-07 12:59 36.54667 24.11586 33482 ft 412 kts 349°
2026-05-07 12:59 36.57518 24.11405 33972 ft 409 kts 349°
2026-05-07 12:59 36.60347 24.11229 34408 ft 406 kts 349°
2026-05-07 12:59 36.63175 24.11052 34601 ft 408 kts 349°
2026-05-07 13:00 36.66013 24.10863 34904 ft 407 kts 349°
2026-05-07 13:00 36.68834 24.10681 35270 ft 405 kts 349°
2026-05-07 13:00 36.71603 24.10502 35640 ft 402 kts 348°
2026-05-07 13:00 36.74386 24.10323 36006 ft 399 kts 348°
2026-05-07 13:01 36.77152 24.10145 36365 ft 397 kts 348°
2026-05-07 13:01 36.79895 24.09971 36716 ft 394 kts 347°
2026-05-07 13:01 36.82623 24.09795 37066 ft 392 kts 348°
2026-05-07 13:01 36.85354 24.09624 37123 ft 396 kts 348°
2026-05-07 13:02 36.88116 24.09433 37228 ft 398 kts 348°
2026-05-07 13:02 36.89944 24.09312 37390 ft 397 kts 348°
2026-05-07 13:02 36.92703 24.09127 37643 ft 396 kts 347°
2026-05-07 13:02 36.96340 24.08884 38007 ft 394 kts 347°
2026-05-07 13:03 36.99072 24.08701 38166 ft 393 kts 347°
2026-05-07 13:03 37.01793 24.08521 38140 ft 390 kts 347°
2026-05-07 13:03 37.07195 24.08171 38133 ft 391 kts 347°
2026-05-07 13:04 37.11732 24.07863 38146 ft 395 kts 347°
2026-05-07 13:04 37.17221 24.07495 38140 ft 395 kts 347°
2026-05-07 13:05 37.22700 24.07128 38138 ft 394 kts 347°
2026-05-07 13:05 37.28182 24.06762 38148 ft 395 kts 347°
2026-05-07 13:06 37.33646 24.06394 38136 ft 396 kts 347°
2026-05-07 13:06 37.39154 24.06024 38133 ft 396 kts 347°
2026-05-07 13:07 37.44663 24.05653 38140 ft 396 kts 347°
2026-05-07 13:07 37.50172 24.05284 38161 ft 397 kts 348°
2026-05-07 13:08 37.55730 24.04910 38147 ft 403 kts 347°
2026-05-07 13:08 37.61342 24.04527 38135 ft 404 kts 348°
2026-05-07 13:09 37.66919 24.04149 38137 ft 404 kts 348°
2026-05-07 13:09 37.72531 24.03770 38147 ft 405 kts 348°
2026-05-07 13:10 37.78189 24.03385 38145 ft 409 kts 348°
2026-05-07 13:10 37.83874 24.02998 38129 ft 409 kts 348°
2026-05-07 13:11 37.89559 24.02610 38127 ft 409 kts 348°
2026-05-07 13:11 37.95241 24.02226 38139 ft 410 kts 348°
2026-05-07 13:12 38.00930 24.01834 38142 ft 414 kts 348°
2026-05-07 13:12 38.06680 24.01440 38125 ft 413 kts 348°
2026-05-07 13:13 38.12424 24.01046 38128 ft 413 kts 348°
2026-05-07 13:13 38.18166 24.00652 38127 ft 413 kts 348°
2026-05-07 13:14 38.23914 24.00257 38116 ft 413 kts 349°
2026-05-07 13:14 38.29650 23.99861 38116 ft 413 kts 348°
2026-05-07 13:15 38.35355 23.99468 38124 ft 413 kts 348°
2026-05-07 13:15 38.41113 23.99072 38114 ft 417 kts 349°
2026-05-07 13:16 38.46925 23.98667 38116 ft 418 kts 349°
2026-05-07 13:16 38.52733 23.98265 38118 ft 418 kts 349°
2026-05-07 13:17 38.58532 23.97863 38125 ft 417 kts 349°
2026-05-07 13:17 38.64315 23.97461 38113 ft 420 kts 349°
2026-05-07 13:18 38.70172 23.97052 38105 ft 422 kts 349°
2026-05-07 13:18 38.76022 23.96644 38119 ft 421 kts 349°
2026-05-07 13:19 38.81873 23.96236 38134 ft 421 kts 350°
2026-05-07 13:19 38.87756 23.95823 38124 ft 425 kts 350°
2026-05-07 13:20 38.93658 23.95409 38120 ft 425 kts 350°
2026-05-07 13:20 38.99521 23.94997 38122 ft 425 kts 350°
2026-05-07 13:21 39.05428 23.94583 38118 ft 426 kts 351°
2026-05-07 13:21 39.11370 23.94163 38126 ft 428 kts 351°
2026-05-07 13:22 39.17321 23.93743 38119 ft 428 kts 351°
2026-05-07 13:22 39.23266 23.93323 38130 ft 428 kts 351°
2026-05-07 13:23 39.29190 23.92903 38128 ft 431 kts 351°
2026-05-07 13:23 39.35180 23.92478 38125 ft 431 kts 351°
2026-05-07 13:24 39.41173 23.92052 38124 ft 431 kts 351°
2026-05-07 13:24 39.47165 23.91626 38131 ft 432 kts 351°
2026-05-07 13:25 39.53170 23.91197 38126 ft 433 kts 351°
2026-05-07 13:25 39.59182 23.90767 38127 ft 433 kts 351°
2026-05-07 13:26 39.65151 23.90340 38124 ft 433 kts 351°
2026-05-07 13:26 39.71173 23.89908 38129 ft 434 kts 351°
2026-05-07 13:27 39.77202 23.89475 38128 ft 434 kts 351°
2026-05-07 13:27 39.83236 23.89041 38129 ft 434 kts 351°
2026-05-07 13:28 39.89233 23.88609 38129 ft 434 kts 351°
2026-05-07 13:28 39.95275 23.88172 38134 ft 435 kts 352°
2026-05-07 13:29 40.01320 23.87735 38136 ft 435 kts 352°
2026-05-07 13:29 40.07369 23.87297 38126 ft 435 kts 352°
2026-05-07 13:30 40.13429 23.86857 38121 ft 437 kts 352°
2026-05-07 13:30 40.19461 23.86418 38119 ft 437 kts 352°
2026-05-07 13:31 40.25535 23.85976 38125 ft 437 kts 352°
2026-05-07 13:31 40.31608 23.85533 38129 ft 437 kts 352°
2026-05-07 13:32 40.37683 23.85088 38118 ft 437 kts 352°
2026-05-07 13:32 40.43762 23.84643 38132 ft 437 kts 352°
2026-05-07 13:33 40.49840 23.84198 38135 ft 437 kts 352°
2026-05-07 13:33 40.55881 23.83753 38130 ft 438 kts 352°
2026-05-07 13:34 40.65017 23.83080 38131 ft 438 kts 352°
2026-05-07 13:35 40.71112 23.82631 38136 ft 439 kts 352°
2026-05-07 13:35 40.77204 23.82179 38132 ft 439 kts 352°
2026-05-07 13:36 40.83304 23.81727 38130 ft 439 kts 352°
2026-05-07 13:36 40.89398 23.81275 38132 ft 439 kts 352°
2026-05-07 13:37 40.95449 23.80825 38128 ft 438 kts 352°
2026-05-07 13:37 41.01538 23.80371 38132 ft 438 kts 352°
2026-05-07 13:38 41.07626 23.79916 38136 ft 438 kts 352°
2026-05-07 13:38 41.13718 23.79460 38122 ft 439 kts 352°
2026-05-07 13:39 41.19790 23.79005 38133 ft 441 kts 352°
2026-05-07 13:39 41.25903 23.78546 38138 ft 439 kts 352°
2026-05-07 13:40 41.32002 23.78088 38137 ft 439 kts 352°
2026-05-07 13:40 41.38115 23.77627 38143 ft 440 kts 353°
2026-05-07 13:41 41.44147 23.76820 38164 ft 439 kts 349°
2026-05-07 13:41 41.50221 23.75952 38142 ft 438 kts 349°
2026-05-07 13:42 41.56298 23.75095 38133 ft 440 kts 350°
2026-05-07 13:42 41.62411 23.74233 38133 ft 443 kts 350°
2026-05-07 13:43 41.68549 23.73365 38135 ft 443 kts 350°
2026-05-07 13:43 41.74694 23.72495 38142 ft 445 kts 350°
2026-05-07 13:44 41.80813 23.71626 38139 ft 445 kts 350°
2026-05-07 13:44 41.86970 23.70751 38138 ft 445 kts 350°
2026-05-07 13:45 41.93133 23.69873 38120 ft 446 kts 350°
2026-05-07 13:45 41.99305 23.68992 38130 ft 446 kts 350°
2026-05-07 13:46 42.05442 23.68115 38135 ft 446 kts 350°
2026-05-07 13:46 42.11619 23.67230 38140 ft 446 kts 350°
2026-05-07 13:47 42.17794 23.66343 38111 ft 446 kts 350°
2026-05-07 13:47 42.23972 23.65455 38122 ft 447 kts 350°
2026-05-07 13:48 42.30099 23.64525 38102 ft 444 kts 346°
2026-05-07 13:48 42.36139 23.62838 38106 ft 444 kts 344°
2026-05-07 13:49 42.42171 23.61107 38090 ft 443 kts 344°
2026-05-07 13:49 42.48202 23.59366 38109 ft 444 kts 344°
2026-05-07 13:50 42.54232 23.57621 38098 ft 443 kts 344°
2026-05-07 13:50 42.60219 23.55885 38105 ft 444 kts 344°
2026-05-07 13:51 42.64258 23.54713 38101 ft 444 kts 344°
2026-05-07 13:51 42.69366 23.53227 38103 ft 445 kts 344°
2026-05-07 13:52 42.75440 23.51458 38086 ft 446 kts 344°
2026-05-07 13:52 42.81476 23.49695 38090 ft 447 kts 344°
2026-05-07 13:53 42.87552 23.47918 38077 ft 446 kts 344°
2026-05-07 13:53 42.93627 23.46138 38093 ft 447 kts 344°
2026-05-07 13:54 42.99699 23.44354 38083 ft 446 kts 344°
2026-05-07 13:54 43.05741 23.42576 38093 ft 449 kts 344°
2026-05-07 13:55 43.11846 23.40776 38072 ft 448 kts 344°
2026-05-07 13:55 43.17943 23.38974 38079 ft 448 kts 344°
2026-05-07 13:56 43.24041 23.37168 38089 ft 448 kts 344°
2026-05-07 13:56 43.30103 23.35370 38070 ft 448 kts 344°
2026-05-07 13:57 43.36197 23.33557 38070 ft 449 kts 344°
2026-05-07 13:57 43.42308 23.31737 38068 ft 449 kts 344°
2026-05-07 13:58 43.48418 23.29914 38064 ft 449 kts 344°
2026-05-07 13:58 43.54440 23.27875 38074 ft 448 kts 341°
2026-05-07 13:59 43.60462 23.25698 38052 ft 447 kts 341°
2026-05-07 13:59 43.66480 23.23535 38056 ft 447 kts 341°
2026-05-07 14:00 43.72516 23.21362 38058 ft 449 kts 341°
2026-05-07 14:00 43.78572 23.19178 38058 ft 450 kts 341°
2026-05-07 14:01 43.84621 23.16992 38059 ft 449 kts 341°
2026-05-07 14:01 43.90623 23.14818 38048 ft 449 kts 341°
2026-05-07 14:02 43.96669 23.12623 38051 ft 449 kts 341°
2026-05-07 14:02 44.02717 23.10423 38052 ft 451 kts 341°
2026-05-07 14:03 44.08800 23.08206 38057 ft 452 kts 341°
2026-05-07 14:03 44.14846 23.05997 38051 ft 452 kts 341°
2026-05-07 14:04 44.20930 23.03770 38055 ft 452 kts 341°
2026-05-07 14:04 44.27016 23.01538 38054 ft 452 kts 341°
2026-05-07 14:05 44.33105 22.99299 38067 ft 452 kts 341°
2026-05-07 14:05 44.39192 22.97057 38051 ft 452 kts 341°
2026-05-07 14:06 44.45240 22.94824 38057 ft 453 kts 341°
2026-05-07 14:06 44.50495 22.92880 38051 ft 452 kts 341°
2026-05-07 14:07 44.55595 22.90990 38044 ft 452 kts 341°
2026-05-07 14:07 44.61679 22.88730 38053 ft 453 kts 341°
2026-05-07 14:08 44.67722 22.86481 38057 ft 451 kts 341°
2026-05-07 14:08 44.73779 22.84222 38057 ft 451 kts 341°
2026-05-07 14:09 44.79844 22.81955 38060 ft 451 kts 341°
2026-05-07 14:09 44.85908 22.79683 38057 ft 451 kts 341°
2026-05-07 14:10 44.91968 22.77408 38058 ft 450 kts 341°
2026-05-07 14:10 44.97978 22.75147 38065 ft 450 kts 341°
2026-05-07 14:11 45.04031 22.72864 38062 ft 451 kts 341°
2026-05-07 14:11 45.10093 22.70574 38061 ft 451 kts 341°
2026-05-07 14:12 45.16152 22.68279 38060 ft 451 kts 341°
2026-05-07 14:12 45.22206 22.65982 38085 ft 451 kts 341°
2026-05-07 14:13 45.28229 22.63690 38045 ft 451 kts 341°
2026-05-07 14:13 45.34290 22.61380 38067 ft 451 kts 341°
2026-05-07 14:14 45.40357 22.59061 38071 ft 452 kts 341°
2026-05-07 14:14 45.46421 22.56740 38040 ft 451 kts 341°
2026-05-07 14:15 45.52487 22.54412 38042 ft 451 kts 341°
2026-05-07 14:15 45.58009 22.52288 38030 ft 451 kts 341°
2026-05-07 14:16 45.64059 22.49956 38020 ft 451 kts 341°
2026-05-07 14:16 45.70073 22.47634 38042 ft 451 kts 341°
2026-05-07 14:17 45.76148 22.45281 38033 ft 453 kts 341°
2026-05-07 14:17 45.82233 22.42920 38026 ft 453 kts 341°
2026-05-07 14:18 45.88318 22.40553 38018 ft 453 kts 341°
2026-05-07 14:18 45.94399 22.38183 38015 ft 453 kts 341°
2026-05-07 14:19 46.00434 22.35825 38025 ft 453 kts 341°
2026-05-07 14:19 46.06523 22.33442 38023 ft 455 kts 341°
2026-05-07 14:20 46.12645 22.31038 38026 ft 456 kts 341°
2026-05-07 14:20 46.18766 22.28630 38036 ft 456 kts 341°
2026-05-07 14:21 46.24898 22.26213 38020 ft 456 kts 341°
2026-05-07 14:21 46.30972 22.23812 38027 ft 456 kts 341°
2026-05-07 14:22 46.37091 22.21389 38014 ft 456 kts 341°
2026-05-07 14:22 46.43175 22.18973 38033 ft 457 kts 341°
2026-05-07 14:23 46.49298 22.16537 38036 ft 458 kts 341°
2026-05-07 14:23 46.55391 22.14106 38015 ft 457 kts 341°
2026-05-07 14:24 46.61530 22.11652 38035 ft 458 kts 341°
2026-05-07 14:24 46.67666 22.09193 38018 ft 457 kts 341°
2026-05-07 14:25 46.73805 22.06727 38027 ft 458 kts 341°
2026-05-07 14:25 46.79912 22.04268 38036 ft 460 kts 340°
2026-05-07 14:26 46.86089 22.01775 38041 ft 460 kts 340°
2026-05-07 14:26 46.92255 21.99281 38045 ft 460 kts 340°
2026-05-07 14:27 46.98428 21.96779 38047 ft 460 kts 340°
2026-05-07 14:27 47.04549 21.94292 38048 ft 460 kts 340°
2026-05-07 14:28 47.10715 21.91781 38050 ft 460 kts 340°
2026-05-07 14:28 47.16881 21.89263 38023 ft 461 kts 340°
2026-05-07 14:29 47.23069 21.86731 38025 ft 461 kts 340°
2026-05-07 14:29 47.29205 21.84182 38018 ft 461 kts 340°
2026-05-07 14:30 47.35389 21.81612 38006 ft 461 kts 340°
2026-05-07 14:30 47.41562 21.79040 38016 ft 462 kts 340°
2026-05-07 14:31 47.47744 21.76459 38024 ft 462 kts 340°
2026-05-07 14:31 47.53903 21.73881 38021 ft 464 kts 340°
2026-05-07 14:32 47.60126 21.71270 38019 ft 465 kts 340°
2026-05-07 14:32 47.66342 21.68655 38022 ft 465 kts 340°
2026-05-07 14:33 47.72559 21.66034 38010 ft 464 kts 340°
2026-05-07 14:33 47.78777 21.63405 38008 ft 465 kts 340°
2026-05-07 14:34 47.84948 21.60790 37999 ft 465 kts 340°
2026-05-07 14:34 47.91173 21.58146 38000 ft 466 kts 340°
2026-05-07 14:35 47.97409 21.55489 37992 ft 466 kts 340°
2026-05-07 14:35 48.03652 21.52825 37985 ft 466 kts 340°
2026-05-07 14:36 48.09835 21.50178 38003 ft 466 kts 340°
2026-05-07 14:36 48.16077 21.47499 37988 ft 466 kts 340°
2026-05-07 14:37 48.22311 21.44817 37987 ft 466 kts 340°
2026-05-07 14:37 48.31663 21.40782 37975 ft 466 kts 340°
2026-05-07 14:38 48.37888 21.38086 37973 ft 466 kts 340°
2026-05-07 14:38 48.44076 21.35401 37975 ft 466 kts 340°
2026-05-07 14:39 48.50297 21.32694 37962 ft 465 kts 340°
2026-05-07 14:39 48.56519 21.29980 37970 ft 466 kts 340°
2026-05-07 14:40 48.62742 21.27258 37977 ft 467 kts 339°
2026-05-07 14:40 48.68978 21.24646 37957 ft 470 kts 343°
2026-05-07 14:41 48.72153 21.23527 37283 ft 469 kts 342°
2026-05-07 14:41 48.75337 21.22375 36464 ft 472 kts 342°
2026-05-07 14:41 48.78523 21.21214 35802 ft 471 kts 342°
2026-05-07 14:41 48.81697 21.20052 35192 ft 469 kts 342°
2026-05-07 14:42 48.84866 21.18890 34517 ft 468 kts 342°
2026-05-07 14:42 48.88038 21.17725 33759 ft 470 kts 342°
2026-05-07 14:42 48.91225 21.16554 32878 ft 473 kts 342°
2026-05-07 14:42 48.94425 21.15376 32100 ft 473 kts 342°
2026-05-07 14:43 48.97563 21.14226 31545 ft 468 kts 342°
2026-05-07 14:43 49.00726 21.13076 30875 ft 467 kts 342°
2026-05-07 14:43 49.03892 21.11921 30047 ft 470 kts 342°
2026-05-07 14:43 49.07047 21.10769 29107 ft 472 kts 342°
2026-05-07 14:44 49.10229 21.09606 28535 ft 466 kts 342°
2026-05-07 14:44 49.13365 21.08461 27905 ft 462 kts 342°
2026-05-07 14:44 49.16486 21.07322 27312 ft 458 kts 342°
2026-05-07 14:44 49.19572 21.06192 26638 ft 456 kts 343°
2026-05-07 14:45 49.22690 21.05050 25567 ft 464 kts 343°
2026-05-07 14:45 49.25812 21.03905 24567 ft 471 kts 343°
2026-05-07 14:45 49.29015 21.02730 23580 ft 476 kts 343°
2026-05-07 14:45 49.32237 21.01510 22428 ft 478 kts 340°
2026-05-07 14:46 49.35216 20.99389 21645 ft 467 kts 324°
2026-05-07 14:46 49.37922 20.96807 20923 ft 450 kts 324°
2026-05-07 14:46 49.40549 20.94295 19971 ft 440 kts 324°
2026-05-07 14:46 49.43115 20.91810 19003 ft 432 kts 324°
2026-05-07 14:47 49.45600 20.89390 18025 ft 425 kts 324°
2026-05-07 14:47 49.48068 20.86982 16963 ft 417 kts 324°
2026-05-07 14:47 49.50495 20.84609 15967 ft 410 kts 324°
2026-05-07 14:47 49.52878 20.82278 15031 ft 403 kts 324°
2026-05-07 14:48 49.55207 20.79996 14378 ft 390 kts 324°
2026-05-07 14:48 49.57445 20.77800 13918 ft 373 kts 324°
2026-05-07 14:48 49.59588 20.75696 13467 ft 358 kts 324°
2026-05-07 14:48 49.61646 20.73672 13015 ft 345 kts 324°
2026-05-07 14:49 49.63706 20.71642 12655 ft 357 kts 324°
2026-05-07 14:49 49.65789 20.69592 12189 ft 363 kts 324°
2026-05-07 14:49 49.67931 20.67480 11748 ft 369 kts 325°
2026-05-07 14:49 49.70113 20.65328 11271 ft 373 kts 325°
2026-05-07 14:50 49.72272 20.63193 11048 ft 364 kts 325°
2026-05-07 14:50 49.74363 20.61125 10948 ft 350 kts 325°
2026-05-07 14:50 49.76379 20.59129 10800 ft 338 kts 325°
2026-05-07 14:50 49.78324 20.57200 10664 ft 327 kts 324°
2026-05-07 14:51 49.80216 20.55322 10539 ft 319 kts 324°
2026-05-07 14:51 49.82042 20.53509 10347 ft 314 kts 324°
2026-05-07 14:51 49.83857 20.51705 10161 ft 306 kts 324°
2026-05-07 14:51 49.85620 20.49951 10016 ft 296 kts 324°
2026-05-07 14:52 49.87342 20.48237 9729 ft 293 kts 324°
2026-05-07 14:52 49.89052 20.46533 9376 ft 292 kts 324°
2026-05-07 14:52 49.90754 20.44835 9044 ft 289 kts 324°
2026-05-07 14:52 49.92439 20.43152 8728 ft 287 kts 324°
2026-05-07 14:53 49.94112 20.41482 8422 ft 284 kts 324°
2026-05-07 14:53 49.95765 20.39828 8122 ft 282 kts 324°
2026-05-07 14:53 49.97387 20.38206 7821 ft 280 kts 324°
2026-05-07 14:53 49.99016 20.36573 7508 ft 278 kts 324°
2026-05-07 14:54 50.00632 20.34955 7251 ft 274 kts 324°
2026-05-07 14:54 50.02219 20.33361 6969 ft 270 kts 324°
2026-05-07 14:54 50.03788 20.31787 6673 ft 268 kts 324°
2026-05-07 14:54 50.05347 20.30220 6385 ft 265 kts 324°
2026-05-07 14:55 50.06887 20.28672 6089 ft 262 kts 323°
2026-05-07 14:55 50.08410 20.27140 5839 ft 258 kts 323°
2026-05-07 14:55 50.09891 20.25651 5704 ft 249 kts 323°
2026-05-07 14:55 50.11297 20.24234 5588 ft 239 kts 323°
2026-05-07 14:56 50.12526 20.22610 5410 ft 227 kts 302°
2026-05-07 14:56 50.13101 20.20395 5159 ft 218 kts 275°
2026-05-07 14:56 50.13083 20.18080 4996 ft 210 kts 262°
2026-05-07 14:56 50.12880 20.15873 4886 ft 201 kts 259°
2026-05-07 14:57 50.12634 20.13766 4759 ft 194 kts 258°
2026-05-07 14:57 50.12374 20.11741 4614 ft 188 kts 258°
2026-05-07 14:57 50.12107 20.09752 4476 ft 187 kts 258°
2026-05-07 14:57 50.11835 20.07761 4255 ft 188 kts 258°
2026-05-07 14:58 50.11565 20.05791 4022 ft 189 kts 258°
2026-05-07 14:58 50.11288 20.03793 3803 ft 189 kts 258°
2026-05-07 14:58 50.11011 20.01792 3569 ft 189 kts 257°
2026-05-07 14:58 50.10734 19.99793 3327 ft 188 kts 257°
2026-05-07 14:59 50.10462 19.97831 3121 ft 182 kts 257°
2026-05-07 14:59 50.10198 19.95927 2862 ft 177 kts 257°
2026-05-07 14:59 50.09940 19.94076 2635 ft 173 kts 257°
2026-05-07 14:59 50.09687 19.92253 2394 ft 171 kts 256°
2026-05-07 15:00 50.09438 19.90460 2161 ft 168 kts 256°
2026-05-07 15:00 50.09197 19.88724 1964 ft 157 kts 256°
2026-05-07 15:00 50.08979 19.87164 1766 ft 143 kts 257°
2026-05-07 15:00 50.08763 19.85650 1558 ft 145 kts 256°
2026-05-07 15:01 50.08546 19.84117 1367 ft 144 kts 257°
2026-05-07 15:01 50.08348 19.82584 1162 ft 146 kts 257°
2026-05-07 15:01 50.08133 19.81035 979 ft 146 kts 256°
2026-05-07 15:01 50.07916 19.79505 811 ft 140 kts 257°
2026-05-07 15:02 50.07737 19.78220 792 ft 90 kts 257°
2026-05-07 15:02 50.07651 19.77602 792 ft 35 kts 258°
2026-05-07 15:02 50.07619 19.77375 793 ft 14 kts 257°
2026-05-07 15:02 50.07597 19.77221 796 ft 17 kts 257°
2026-05-07 15:03 50.07565 19.77001 798 ft 26 kts 257°
2026-05-07 15:03 50.07466 19.76854 796 ft 20 kts 166°
2026-05-07 15:03 50.07326 19.76927 792 ft 19 kts 131°
2026-05-07 15:03 50.07330 19.77120 792 ft 19 kts 77°
2026-05-07 15:04 50.07359 19.77327 792 ft 20 kts 78°
2026-05-07 15:04 50.07389 19.77548 792 ft 22 kts 77°
2026-05-07 15:04 50.07422 19.77782 792 ft 23 kts 78°
2026-05-07 15:04 50.07456 19.78030 792 ft 24 kts 78°
2026-05-07 15:05 50.07493 19.78290 792 ft 25 kts 77°
2026-05-07 15:05 50.07517 19.78467 792 ft 26 kts 78°
2026-05-07 15:05 50.07569 19.78840 792 ft 27 kts 77°
2026-05-07 15:05 50.07609 19.79133 792 ft 27 kts 78°
2026-05-07 15:06 50.07649 19.79414 792 ft 24 kts 77°
2026-05-07 15:06 50.07669 19.79556 792 ft 9 kts 77°
2026-05-07 15:06 50.07683 19.79654 792 ft 11 kts 78°
2026-05-07 15:06 50.07695 19.79738 792 ft 13 kts 77°
2026-05-07 15:07 50.07717 19.79897 792 ft 16 kts 78°
2026-05-07 15:07 50.07740 19.80063 792 ft 10 kts 77°
2026-05-07 15:07 50.07754 19.80160 792 ft 8 kts 77°
2026-05-07 15:07 50.07764 19.80234 792 ft 6 kts 79°
2026-05-07 15:08 50.07773 19.80303 792 ft 8 kts 82°
2026-05-07 15:08 50.07754 19.80364 792 ft 5 kts 156°
2026-05-07 15:08 50.07707 19.80384 792 ft 9 kts 165°
2026-05-07 15:08 50.07630 19.80410 792 ft 13 kts 170°
2026-05-07 15:09 50.07556 19.80374 792 ft 8 kts 241°
2026-05-07 15:09 50.07550 19.80282 792 ft 11 kts 264°
2026-05-07 15:09 50.07530 19.80193 792 ft 3 kts 200°
2026-05-07 15:09 50.07522 19.80198 792 ft 2 kts 154°
2026-05-07 15:10 50.07497 19.80211 792 ft 5 kts 167°
2026-05-07 15:10 50.07493 19.80212 792 ft 0 kts 167°